Hourly Data Report for May 10, 2021

CARIBOU POINT (AUT)
NOVA SCOTIA
Current Station Operator: ECCC - MSC

45°46'00.000" N
62°41'00.000" W
2.40 m
8200774
71415
WBK

Download Data

Hourly Data (May 2021)
Hourly Data Report for May 10, 2021
TIME
LST
Temp Definition
°C
Dew Point Definition
°C
Rel Hum Definition
%
Precip. Amount Definition
mm

Wind Dir Definition
10's deg

Wind Spd Definition
km/h
Visibility Definition
km
Stn Press Definition
kPa
Hmdx Definition


Wind Chill Definition


Weather Definition


00:00 3.7 2.8 94 0.0 22 6   100.89     LegendNANA
01:00 3.4 2.5 94 0.0 22 6   100.88     LegendNANA
02:00 3.3 2.5 95 0.0 23 5   100.89     LegendNANA
03:00 3.4 2.6 95 0.0 23 9   100.90     LegendNANA
04:00 3.8 2.9 94 0.0 27 9   100.93     LegendNANA
05:00 3.9 3.1 94 0.0 27 11   100.97     LegendNANA
06:00 5.2 4.0 92 0.0 30 11   101.00     LegendNANA
07:00 7.0 5.4 90 0.0 29 8   101.01     LegendNANA
08:00 6.8 3.8 81 0.0 31 4   101.03     LegendNANA
09:00 7.5 3.5 76 0.0 30 7   101.07     LegendNANA
10:00 7.5 2.9 73 0.0 31 6   101.03     LegendNANA
11:00 7.6 3.1 73 0.0 31 6   101.06     LegendNANA
12:00 8.2 4.0 75 0.0 33 8   101.03     LegendNANA
13:00 9.1 4.2 71 0.0 30 11   100.95     LegendNANA
14:00 9.3 4.5 72 0.0 8 8   100.95     LegendNANA
15:00 9.0 4.5 74 0.0 8 11   100.95     LegendNANA
16:00 9.0 4.4 73 0.0 9 12   100.96     LegendNANA
17:00 8.8 4.3 73 0.0 9 13   100.98     LegendNANA
18:00 8.1 4.5 78 0.0 11 16   100.95     LegendNANA
19:00 7.0 4.2 82 0.0 10 14   100.96     LegendNANA
20:00 6.5 3.6 82 0.0 12 9   101.04     LegendNANA
21:00 6.1 3.2 82 0.0 12 8   101.08     LegendNANA
22:00 6.1 2.8 79 0.0 7 14   101.08     LegendNANA
23:00 6.2 4.3 88 0.0 12 10   101.09     LegendNANA

Notes on Data Quality.

Legend

  • E = Estimated
  • M = Missing
  • NA = Not Available*
  • [empty] = Indicates an unobserved value
Date modified: